Retour au catalogue

THORAD DELTA 1 DEB

ActifSSO
NORAD 8140·DEBRIS·🇺🇸 United States

Lancé Nov 15, 1974 depuis Vandenberg Space Force Base

Loading…

Prochains Passages (prochaines 24 heures)

TLE

FraisSource: Space-Track

Époque: Sep 14, 2026, 19:42 UTC

1 08140U 74089J   26257.82152638 -.00000021  00000-0  17190-3 0  9993
2 08140 102.0503 216.7486 0043733  38.4774 348.6472 12.46738761358659

Suivez THORAD DELTA 1 DEB en temps réel avec AllMySat

Download on the App Store